TimeCST,TemperatureF,Dew PointF,Humidity,Sea Level PressureIn,VisibilityMPH,Wind Direction,Wind SpeedMPH,Gust SpeedMPH,PrecipitationIn,Events,Conditions,WindDirDegrees,DateUTC
12:15 AM,43.7,27.5,53,29.77,10.0,NW,13.8,20.7,N/A,,Overcast,310,2014-01-16 06:15:00
12:35 AM,43.0,27.5,54,29.73,10.0,West,6.9,-,N/A,,Overcast,260,2014-01-16 06:35:00
12:55 AM,42.6,27.5,55,29.72,10.0,WSW,10.4,-,N/A,,Scattered Clouds,250,2014-01-16 06:55:00
1:15 AM,42.3,27.5,56,29.71,10.0,WSW,13.8,-,N/A,,Clear,250,2014-01-16 07:15:00
1:35 AM,41.0,27.3,58,29.71,10.0,West,12.7,-,N/A,,Clear,260,2014-01-16 07:35:00
1:55 AM,41.0,26.6,57,29.71,10.0,West,13.8,-,N/A,,Clear,270,2014-01-16 07:55:00
2:15 AM,43.3,25.7,50,29.71,10.0,West,21.9,27.6,N/A,,Clear,280,2014-01-16 08:15:00
2:35 AM,45.5,22.8,41,29.72,10.0,WNW,35.7,46.0,N/A,,Clear,300,2014-01-16 08:35:00
2:55 AM,44.8,22.1,41,29.73,10.0,WNW,23.0,35.7,N/A,,Clear,300,2014-01-16 08:55:00
3:15 AM,44.2,20.3,39,29.73,10.0,NW,20.7,29.9,N/A,,Clear,310,2014-01-16 09:15:00
3:35 AM,43.0,20.3,40,29.73,10.0,WNW,17.3,-,N/A,,Clear,300,2014-01-16 09:35:00
3:55 AM,44.1,22.3,42,29.73,10.0,WNW,28.8,44.9,N/A,,Scattered Clouds,300,2014-01-16 09:55:00
4:15 AM,43.0,22.1,44,29.74,10.0,WNW,18.4,33.4,N/A,,Mostly Cloudy,300,2014-01-16 10:15:00
4:35 AM,42.1,20.5,42,29.74,10.0,NW,35.7,42.6,N/A,,Scattered Clouds,320,2014-01-16 10:35:00
4:55 AM,41.5,19.2,41,29.75,10.0,NW,32.2,43.7,N/A,,Clear,310,2014-01-16 10:55:00
5:15 AM,41.2,19.4,42,29.76,10.0,WNW,28.8,39.1,N/A,,Mostly Cloudy,300,2014-01-16 11:15:00
5:35 AM,41.0,19.0,41,29.76,10.0,WNW,27.6,40.3,N/A,,Overcast,300,2014-01-16 11:35:00
5:55 AM,40.6,19.0,42,29.76,10.0,WNW,29.9,40.3,N/A,,Overcast,300,2014-01-16 11:55:00
6:15 AM,40.8,19.0,42,29.76,10.0,WNW,27.6,34.5,N/A,,Overcast,300,2014-01-16 12:15:00
6:35 AM,41.0,19.0,41,29.77,10.0,NW,26.5,34.5,N/A,,Overcast,310,2014-01-16 12:35:00
6:55 AM,41.4,17.6,38,29.77,10.0,NW,28.8,44.9,N/A,,Overcast,320,2014-01-16 12:55:00
7:15 AM,40.6,15.8,37,29.78,10.0,NW,25.3,40.3,N/A,,Overcast,320,2014-01-16 13:15:00
7:35 AM,40.1,16.9,39,29.79,10.0,NW,21.9,33.4,N/A,,Overcast,310,2014-01-16 13:35:00
7:55 AM,39.7,17.6,41,29.78,10.0,WNW,24.2,33.4,N/A,,Mostly Cloudy,300,2014-01-16 13:55:00
8:15 AM,39.6,18.3,42,29.79,10.0,WNW,27.6,36.8,N/A,,Scattered Clouds,290,2014-01-16 14:15:00
8:35 AM,39.7,18.5,42,29.80,10.0,WNW,25.3,36.8,N/A,,Mostly Cloudy,300,2014-01-16 14:35:00
8:55 AM,40.3,18.5,42,29.80,10.0,NW,26.5,39.1,N/A,,Overcast,310,2014-01-16 14:55:00
9:15 AM,40.6,18.3,41,29.81,10.0,NW,27.6,40.3,N/A,,Overcast,310,2014-01-16 15:15:00
9:35 AM,40.5,18.5,41,29.81,10.0,NW,27.6,38.0,N/A,,Overcast,310,2014-01-16 15:35:00
9:55 AM,40.5,18.5,41,29.82,10.0,NW,23.0,38.0,N/A,,Overcast,310,2014-01-16 15:55:00
10:15 AM,41.0,18.3,40,29.82,10.0,NW,34.5,42.6,N/A,,Mostly Cloudy,310,2014-01-16 16:15:00
10:35 AM,41.0,17.2,38,29.83,10.0,NW,34.5,42.6,N/A,,Mostly Cloudy,310,2014-01-16 16:35:00
10:55 AM,41.7,17.1,37,29.82,10.0,NW,31.1,41.4,N/A,,Overcast,310,2014-01-16 16:55:00
11:15 AM,41.0,17.6,39,29.82,10.0,NW,32.2,43.7,N/A,,Overcast,310,2014-01-16 17:15:00
11:35 AM,41.5,17.6,38,29.81,10.0,NW,38.0,44.9,N/A,,Overcast,310,2014-01-16 17:35:00
11:55 AM,41.4,16.2,36,29.80,10.0,NW,35.7,42.6,N/A,,Overcast,310,2014-01-16 17:55:00
12:15 PM,40.3,16.9,39,29.80,10.0,NW,38.0,52.9,N/A,,Overcast,310,2014-01-16 18:15:00
12:35 PM,40.3,17.4,40,29.80,10.0,WNW,36.8,47.2,N/A,,Overcast,300,2014-01-16 18:35:00
12:55 PM,39.0,18.9,44,29.79,10.0,NW,29.9,48.3,N/A,,Overcast,310,2014-01-16 18:55:00
1:15 PM,39.7,17.6,41,29.79,10.0,WNW,33.4,44.9,N/A,,Overcast,300,2014-01-16 19:15:00
1:35 PM,40.5,12.0,31,29.79,10.0,NW,33.4,50.6,N/A,,Overcast,320,2014-01-16 19:35:00
1:55 PM,40.5,16.2,37,29.78,10.0,WNW,38.0,44.9,N/A,,Overcast,300,2014-01-16 19:55:00
2:35 PM,39.6,15.3,37,29.80,10.0,NNW,34.5,47.2,N/A,,Overcast,330,2014-01-16 20:35:00
2:55 PM,36.1,17.1,46,29.83,10.0,NNW,33.4,46.0,N/A,,Overcast,330,2014-01-16 20:55:00
3:15 PM,36.3,11.8,36,29.85,10.0,NNW,40.3,51.8,N/A,,Mostly Cloudy,340,2014-01-16 21:15:00
3:35 PM,33.6,9.1,36,29.87,7.0,NW,39.1,54.1,N/A,,Mostly Cloudy,320,2014-01-16 21:35:00
3:55 PM,32.0,6.6,34,29.89,7.0,NNW,34.5,49.5,N/A,,Overcast,340,2014-01-16 21:55:00
4:15 PM,28.0,5.9,39,29.92,10.0,North,27.6,39.1,N/A,,Scattered Clouds,350,2014-01-16 22:15:00
4:35 PM,27.7,6.1,40,29.94,10.0,NNW,26.5,38.0,N/A,,Clear,340,2014-01-16 22:35:00
4:55 PM,26.2,5.0,40,29.94,10.0,NNW,27.6,36.8,N/A,,Clear,340,2014-01-16 22:55:00
5:15 PM,26.2,4.8,40,29.96,10.0,NNW,31.1,41.4,N/A,,Mostly Cloudy,330,2014-01-16 23:15:00
5:35 PM,25.2,1.8,37,29.97,10.0,NW,35.7,50.6,N/A,,Overcast,320,2014-01-16 23:35:00
5:55 PM,23.9,2.3,39,29.99,10.0,NNW,33.4,41.4,N/A,,Overcast,340,2014-01-16 23:55:00
6:15 PM,22.8,2.8,42,30.00,10.0,NNW,25.3,41.4,N/A,,Overcast,340,2014-01-17 00:15:00
6:35 PM,21.7,3.0,45,30.02,10.0,North,20.7,-,N/A,,Overcast,350,2014-01-17 00:35:00
6:55 PM,21.2,3.2,46,30.03,10.0,NNW,23.0,28.8,N/A,,Overcast,340,2014-01-17 00:55:00
7:15 PM,21.4,3.6,46,30.04,10.0,NNW,19.6,34.5,N/A,,Overcast,340,2014-01-17 01:15:00
7:35 PM,21.0,3.2,46,30.04,10.0,NNW,27.6,42.6,N/A,,Overcast,330,2014-01-17 01:35:00
7:55 PM,20.3,3.6,48,30.04,10.0,NNW,21.9,32.2,N/A,,Scattered Clouds,330,2014-01-17 01:55:00
8:15 PM,19.2,3.7,51,30.05,10.0,NNW,20.7,26.5,N/A,,Clear,340,2014-01-17 02:15:00
8:35 PM,18.9,3.9,52,30.06,10.0,NNW,15.0,24.2,N/A,,Scattered Clouds,330,2014-01-17 02:35:00
8:55 PM,19.8,4.1,51,30.06,10.0,NNW,21.9,29.9,N/A,,Scattered Clouds,330,2014-01-17 02:55:00
9:15 PM,19.9,4.5,51,30.07,10.0,NNW,19.6,27.6,N/A,,Mostly Cloudy,330,2014-01-17 03:15:00
9:35 PM,19.9,5.5,54,30.07,10.0,NNW,13.8,25.3,N/A,,Overcast,330,2014-01-17 03:35:00
9:55 PM,20.3,5.9,54,30.07,10.0,NNW,20.7,31.1,N/A,,Overcast,340,2014-01-17 03:55:00
10:15 PM,20.1,5.7,54,30.07,10.0,NNW,17.3,28.8,N/A,,Overcast,330,2014-01-17 04:15:00
10:35 PM,19.8,4.5,52,30.07,10.0,NNW,28.8,40.3,N/A,,Mostly Cloudy,330,2014-01-17 04:35:00
10:55 PM,19.0,3.6,51,30.08,10.0,NNW,23.0,38.0,N/A,,Scattered Clouds,330,2014-01-17 04:55:00
11:15 PM,18.1,3.0,52,30.09,10.0,NNW,19.6,26.5,N/A,,Clear,330,2014-01-17 05:15:00
11:35 PM,17.8,-0.6,45,30.09,10.0,NNW,21.9,31.1,N/A,,Clear,340,2014-01-17 05:35:00
11:55 PM,16.7,-0.9,46,30.09,10.0,NNW,18.4,-,N/A,,Clear,330,2014-01-17 05:55:00